Location: Ballingbuur
(53.0000°N, 5.7667°E)
Time: 09:00:49
(UTC+00:00)

Envisat - Visible Passes

Search period start: 27 February 2021 00:00
Search period end: 09 March 2021 00:00
Orbit: 764 x 766 km, 98.1° (Epoch: 26 February)

Date Brightness Start Highest point End Pass type
(mag) Time Alt. Az. Time Alt. Az. Time Alt. Az.
27 Feb 5.8 04:08:39 10° NE 04:12:13 19° E 04:15:45 10° SE visible
27 Feb 3.0 05:46:44 10° NNE 05:51:50 78° WNW 05:56:56 10° SSW visible
28 Feb 3.8 05:09:57 10° NNE 05:14:58 56° E 05:19:58 10° S visible
28 Feb 6.7 18:14:23 10° W 18:15:44 11° W 18:17:05 10° WNW visible
01 Mar 5.1 04:33:28 10° NNE 04:37:54 29° E 04:42:18 10° SSE visible
02 Mar 6.0 03:57:39 10° NE 04:00:38 15° E 04:03:36 10° ESE visible
02 Mar 3.1 05:35:18 10° NNE 05:40:26 87° ESE 05:45:32 10° SSW visible
03 Mar 4.2 04:58:35 10° NNE 05:03:30 46° E 05:08:21 10° S visible
03 Mar 6.4 18:01:36 10° WSW 18:04:07 14° W 18:06:39 10° NW visible
04 Mar 5.4 04:22:14 10° NE 04:26:22 24° E 04:30:27 10° SE visible
05 Mar 6.2 03:46:53 10° ENE 03:49:01 13° E 03:51:10 10° ESE visible
05 Mar 3.4 05:23:53 10° NNE 05:28:59 72° ESE 05:34:04 10° S visible
06 Mar 4.6 04:47:15 10° NNE 04:52:00 37° E 04:56:42 10° SSE visible
07 Mar 5.7 04:11:05 10° NE 04:14:49 20° E 04:18:31 10° SE visible
08 Mar 3.7 05:12:28 10° NNE 05:17:32 59° E 05:22:32 10° S visible
08 Mar 6.8 18:18:00 10° W 18:18:20 10° W 18:18:41 10° WNW visible
